星链-5720 (STARLINK-5720 )

导读 | 豆包AI

STARLINK-5720是美国SpaceX公司星链星座中的一颗低轨通信卫星,于2023年2月12日发射入轨。星链星座旨在为全球提供宽带互联网服务,尤其覆盖偏远地区、海洋等传统基础设施难以抵达的区域,这颗卫星采用平板设计,搭载Ku和Ka波段通信载荷,配备氪工质霍尔推进器,具备自主避撞能力,寿命结束后会主动离轨再入大气层烧毁。

基本信息
目录编号:
55619
目录名称:
STARLINK-5720
国际标识:
2023-020BC
轨道中心:
EARTH
卫星名称:
星链-5720
卫星全名:
星链-5720 (STARLINK-5720 )
卫星状态:
在轨 (已飞行1127 天)
发射日期:
2023-02-12 UTC
国别 :
美国 (US)
星等 :
--
轨道信息
数据来源 国际轨道数据
星历时间: 2026-03-14T18:08:22+0800
1天前
查看轨道信息
半长轴: 6937.171km
偏心率: 0.000211
轨道倾角: 43.010°
近地点辐角 227.025°
升交点赤经 325.739°
平近点角 133.041°
近地点: 557.57km
远地点: 560.498km
周期: 95.837分钟
每日圈数: 15.025508
详细信息
固有亮度:
5
最大亮度:
2.5
卫星平台:
Starlink v1.5
覆盖范围:
全球
运营商:
太空探索技术公司
运营商所在国:
美国
制造商(研发单位):
太空探索技术公司
制造商所在国:
美国
使用方式:
暂无
卫星简介
星链(Starlink)计划是由太空探索技术公司(SpaceX)提出的一个巨型低轨卫星互联网星座项目,计划在2019年至2024年间在太空搭建由约1.2万颗卫星组成的“星链”网络,其中1584颗将部署在地球上空550千米处的近地轨道,并从2020年开始工作。该卫星仍在工作。
2D轨道图
3D轨道图
轨道高度分析图
轨道倾角分析图
轨道综合分析图
查看轨道综合分析图